Cozumel, Mexico

6:10 AM on April 26, 2017 (GMT +0000)
Cozumel International

Weather History for MMCZ - March, 2013

Change the Weather History Date:

Wednesday, March 27, 2013

  Actual Average Record
Temperature  
Mean Temperature 70 °F -  
Max Temperature 75 °F 84 °F 89 °F (2003)
Min Temperature 64 °F 72 °F 37 °F (2002)
Cooling Degree Days 4    
Growing Degree Days 20 (Base 50)    
Moisture  
Dew Point 60 °F    
Average Humidity 76    
Maximum Humidity 94    
Minimum Humidity 57    
Precipitation  
Precipitation 0.35 in - - ()
Sea Level Pressure  
Sea Level Pressure 30.18 in    
Wind  
Wind Speed 8 mph ()    
Max Wind Speed 17 mph    
Max Gust Speed 23 mph    
Visibility 6.6 miles    
Events Rain    
Averages and records for this station are not official NWS values.
T = Trace of Precipitation, MM = Missing Value Source: Averaged Metar Reports

Daily Weather History Graph

Daily Weather History Graph

Search for Another Location

Airport or City:

Trip Planner

Search our weather history database for the weather conditions in past years. The results will help you decide how hot, cold, wet, or windy it might be!

Date:

Astronomy

Mar. 27, 2013 Rise Set
Actual Time 5:45 AM CST 6:00 PM CST
Civil Twilight 5:23 AM CST 6:23 PM CST
Nautical Twilight 4:57 AM CST 6:48 PM CST
Astronomical Twilight 4:31 AM CST 7:14 PM CST
Moon 6:32 PM CST (3/27) 5:42 AM CST (3/27)
Length of Visible Light 12h 59m
Length of Day
12h 15m
Full, 100% of the Moon is Illuminated
Mar 27
Full
Apr 2
Last Quarter
Apr 10
New
Apr 18
First Quarter
Apr 25
Full

Hourly Weather History & Observations

Time (CST) Temp. Dew Point Humidity Pressure Visibility Wind Dir Wind Speed Gust Speed Precip Events Conditions
12:48 AM 68.0 °F 59.0 °F 73% 30.17 in 7.0 mi NNE 9.2 mph - N/A   Mostly Cloudy
2:03 AM 68.0 °F 59.0 °F 73% 30.15 in 7.0 mi Calm Calm - N/A   Mostly Cloudy
2:45 AM 68.0 °F 59.0 °F 73% 30.17 in 7.0 mi NNE 6.9 mph - N/A   Mostly Cloudy
4:07 AM 66.2 °F 59.0 °F 78% 30.15 in 7.0 mi North 6.9 mph - N/A   Mostly Cloudy
5:10 AM 66.2 °F 59.0 °F 78% 30.15 in 7.0 mi NNE 9.2 mph - N/A   Mostly Cloudy
5:40 AM 66.2 °F 59.0 °F 78% 30.13 in 7.0 mi North 13.8 mph - N/A   Scattered Clouds
6:49 AM 66.2 °F 59.0 °F 78% 30.19 in 7.0 mi North 13.8 mph - N/A   Mostly Cloudy
7:40 AM 68.0 °F 60.8 °F 78% 30.20 in 7.0 mi North 15.0 mph - N/A   Mostly Cloudy
8:43 AM 69.8 °F 59.0 °F 68% 30.25 in 7.0 mi North 11.5 mph - N/A   Scattered Clouds
9:40 AM 73.4 °F 59.0 °F 61% 30.22 in 7.0 mi North 15.0 mph - N/A   Scattered Clouds
10:41 AM 73.4 °F 60.8 °F 65% 30.22 in 7.0 mi NNE 15.0 mph - N/A   Mostly Cloudy
11:40 AM 75.2 °F 59.0 °F 57% 30.16 in 7.0 mi North 17.3 mph - N/A   Scattered Clouds
12:43 PM 73.4 °F 62.6 °F 69% 30.19 in 7.0 mi NNE 11.5 mph 23.0 mph N/A   Mostly Cloudy
1:40 PM 66.2 °F 62.6 °F 88% 30.20 in 2.0 mi North 6.9 mph - N/A Rain Rain
2:18 PM 64.4 °F 62.6 °F 94% 30.18 in 6.0 mi NNE 8.1 mph - N/A   Overcast
2:46 PM 66.2 °F 62.6 °F 88% 30.20 in 6.0 mi NNE 6.9 mph - N/A   Overcast
3:44 PM 64.4 °F 62.6 °F 94% 30.15 in 6.0 mi Calm Calm - N/A   Overcast
4:47 PM 66.2 °F 60.8 °F 83% 30.15 in 6.0 mi NNE 9.2 mph - N/A   Overcast
5:45 PM 66.2 °F 60.8 °F 83% 30.12 in 7.0 mi Calm Calm - N/A   Overcast
6:43 PM 66.2 °F 59.0 °F 78% 30.17 in 7.0 mi NNE 5.8 mph - N/A   Overcast
7:48 PM 68.0 °F 59.0 °F 73% 30.19 in 7.0 mi NE 8.1 mph - N/A   Overcast
8:42 PM 68.0 °F 59.0 °F 73% 30.24 in 7.0 mi NE 5.8 mph - N/A   Mostly Cloudy
9:45 PM 68.0 °F 59.0 °F 73% 30.21 in 7.0 mi NE 8.1 mph - N/A   Scattered Clouds
10:42 PM 66.2 °F 57.2 °F 73% 30.20 in 7.0 mi ENE 5.8 mph - N/A   Scattered Clouds
11:46 PM 66.2 °F 57.2 °F 73% 30.15 in 7.0 mi ENE 5.8 mph - N/A   Partly Cloudy